Temperature
2 2 1 1 0 -0 -1 -2 -3 -4 -3 -3 -3 -2 -2 -3 -3 -3 -3 -3 -3 -3 -2 -2 -2 -1 -1 -1 -0 -0 0 0 0 0 0 1 1 2
1 1 0 0 -1 -1 -2 -2 -3 -4 -5 -4 -4 -4 -4 -4 -4 -4 -3 -3 -3 -3 -3 -3 -3 -2 -2 -2 -1 -1 -1 -0 -0 -0 -0 0 1 1
1 0 -0 -1 -2 -2 -3 -3 -4 -4 -5 -5 -4 -4 -4 -4 -4 -4 -4 -4 -3 -3 -3 -3 -3 -3 -2 -2 -2 -2 -1 -1 -1 -1 -0 -0 0 1
-0 -1 -1 -2 -2 -3 -3 -4 -4 -5 -5 -5 -5 -5 -5 -4 -4 -4 -4 -4 -4 -4 -3 -3 -3 -3 -3 -3 -2 -2 -2 -2 -1 -1 -1 -1 -1 -0
-1 -2 -2 -3 -3 -3 -4 -4 -5 -5 -5 -5 -5 -5 -5 -5 -4 -4 -4 -4 -4 -4 -4 -4 -3 -3 -3 -3 -3 -3 -2 -2 -2 -2 -2 -1 -1 -1
-2 -3 -3 -3 -4 -4 -5 -5 -5 -5 -5 -5 -5 -5 -5 -5 -5 -5 -5 -4 -4 -4 -4 -4 -4 -4 -3 -3 -3 -3 -3 -3 -2 -2 -2 -2 -2 -2
-3 -3 -3 -4 -4 -5 -5 -5 -5 -5 -5 -5 -5 -5 -5 -5 -5 -5 -5 -5 -5 -4 -4 -4 -4 -4 -3 -3 -3 -3 -3 -3 -3 -3 -3 -3 -3 -2
-3 -4 -4 -4 -5 -5 -5 -5 -5 -5 -5 -5 -5 -5 -5 -5 -5 -5 -5 -5 -5 -5 -5 -4 -4 -4 -4 -3 -3 -3 -3 -3 -3 -3 -3 -3 -3 -3
-4 -4 -5 -5 -5 -5 -5 -5 -5 -5 -5 -5 -5 -5 -5 -5 -5 -5 -5 -5 -5 -5 -5 -5 -4 -4 -4 -4 -4 -4 -4 -4 -4 -4 -4 -4 -3 -3
-4 -5 -5 -5 -5 -6 -6 -6 -6 -5 -5 -5 -5 -5 -5 -5 -5 -5 -4 -4 -4 -4 -5 -5 -4 -4 -4 -4 -4 -4 -4 -4 -4 -4 -4 -4 -4 -4
-5 -5 -6 -6 -6 -6 -6 -6 -6 -6 -5 -5 -5 -5 -5 -5 -5 -5 -5 -5 -5 -5 -4 -5 -5 -5 -4 -4 -4 -4 -4 -4 -4 -4 -4 -4 -4 -4
-5 -6 -6 -6 -6 -6 -6 -6 -6 -6 -6 -6 -5 -5 -5 -5 -5 -5 -5 -5 -5 -5 -5 -5 -5 -5 -5 -5 -4 -4 -4 -4 -5 -5 -5 -5 -4 -4
-6 -6 -6 -6 -6 -6 -6 -6 -6 -6 -6 -6 -6 -6 -6 -6 -5 -5 -6 -6 -6 -6 -5 -5 -6 -6 -6 -6 -5 -5 -5 -5 -5 -5 -5 -5 -5 -5
-6 -6 -6 -6 -6 -6 -6 -6 -6 -6 -6 -6 -6 -6 -6 -6 -6 -6 -6 -6 -6 -6 -6 -6 -6 -6 -6 -6 -6 -5 -5 -5 -5 -5 -5 -5 -5 -5
-7 -7 -7 -7 -7 -7 -7 -7 -7 -7 -7 -7 -7 -7 -6 -6 -6 -6 -6 -6 -6 -6 -6 -6 -6 -6 -6 -7 -7 -6 -6 -6 -6 -6 -6 -6 -6 -6
-7 -7 -7 -7 -7 -7 -7 -7 -7 -7 -7 -7 -7 -7 -7 -7 -7 -7 -7 -7 -7 -6 -6 -6 -7 -7 -7 -7 -7 -7 -7 -6 -6 -6 -6 -6 -6 -6
-7 -7 -7 -7 -8 -8 -8 -8 -8 -8 -8 -8 -8 -8 -7 -7 -7 -7 -7 -7 -7 -7 -7 -7 -7 -7 -7 -7 -7 -7 -7 -7 -7 -7 -6 -6 -6 -6
-7 -8 -8 -8 -8 -8 -8 -8 -8 -8 -8 -8 -8 -8 -8 -8 -8 -8 -7 -7 -7 -7 -7 -7 -7 -7 -7 -7 -7 -7 -7 -7 -7 -7 -7 -7 -6 -6
-8 -9 -9 -9 -9 -9 -9 -9 -9 -8 -8 -8 -8 -8 -8 -8 -8 -8 -8 -8 -7 -7 -7 -7 -7 -7 -8 -8 -7 -7 -7 -7 -7 -7 -7 -7 -7 -6
-9 -9 -9 -9 -9 -9 -9 -9 -9 -9 -9 -9 -9 -9 -9 -9 -8 -8 -8 -8 -8 -8 -7 -7 -7 -8 -8 -8 -8 -7 -7 -8 -8 -7 -7 -7 -7 -7
-10 -10 -10 -10 -10 -9 -9 -9 -9 -9 -9 -9 -9 -9 -9 -9 -9 -8 -8 -8 -8 -8 -8 -8 -7 -8 -8 -8 -8 -8 -8 -8 -8 -8 -8 -8 -8 -7
-10 -10 -10 -10 -10 -10 -10 -9 -9 -9 -9 -9 -9 -9 -9 -9 -9 -9 -9 -9 -8 -8 -8 -8 -8 -8 -8 -8 -8 -8 -8 -8 -8 -8 -8 -8 -8 -8
-10 -10 -10 -10 -10 -10 -10 -10 -10 -9 -9 -9 -9 -9 -9 -9 -9 -9 -9 -9 -9 -8 -8 -8 -8 -8 -8 -9 -9 -9 -8 -8 -8 -8 -8 -8 -8 -9
Wind_Speed
7 8 6 6 6 6 6 6 8 16 15 6 5 5 10 14 20 20 19 25 29 29 30 30 30 30 30 30 30 30 29 29 29 29 30 31 31 32
7 8 8 7 6 6 6 6 7 11 17 7 7 7 9 15 22 22 20 28 30 30 30 30 30 30 30 30 30 30 29 29 28 29 30 30 31 31
9 9 9 9 7 7 7 7 8 9 17 16 8 8 9 11 13 17 20 19 20 28 29 29 30 30 30 29 29 29 29 28 28 28 28 29 30 30
10 10 11 10 9 8 8 9 9 10 13 20 14 9 10 10 12 12 13 16 14 24 28 28 29 29 29 29 28 28 27 27 26 26 27 27 28 29
11 11 11 10 11 10 9 10 10 12 11 15 17 12 9 9 10 11 13 11 14 19 23 24 25 26 26 27 27 26 26 25 24 24 24 25 26 27
11 11 11 11 12 11 11 11 11 12 12 14 15 13 10 9 8 9 10 8 10 12 16 19 23 25 26 26 26 25 24 24 23 22 22 22 23 24
10 10 11 14 18 16 14 11 10 11 12 13 14 14 11 8 9 8 12 10 10 10 10 11 11 10 12 19 22 23 23 23 22 21 22 22 22 23
10 10 11 14 18 23 26 26 22 16 13 14 14 15 14 12 10 10 12 13 11 5 7 9 7 9 9 7 18 23 22 22 22 21 21 21 21 21
10 10 11 12 19 11 19 24 23 26 26 19 18 17 16 14 13 15 14 14 14 7 7 11 8 11 9 12 22 22 22 21 21 20 20 20 20 20
10 11 12 12 13 15 14 13 13 15 19 16 14 16 16 16 15 16 16 14 13 11 9 11 9 9 10 8 19 21 21 20 19 19 18 18 18 18
10 11 12 12 21 26 18 14 15 14 19 24 25 24 26 27 21 12 10 11 12 8 6 6 6 6 6 7 11 17 18 17 17 16 16 15 15 14
9 10 18 20 25 27 17 14 17 14 13 15 16 18 16 17 21 12 9 11 10 8 5 5 5 4 4 4 4 4 6 10 13 13 13 12 12 6
9 8 9 23 27 28 24 15 19 19 12 11 11 11 9 8 9 8 8 9 10 8 3 3 4 4 4 3 2 3 3 3 4 5 8 9 10 7
11 9 12 25 27 27 21 20 26 21 9 9 9 9 8 8 7 7 8 9 9 10 8 6 5 5 4 4 3 2 2 3 3 2 2 5 6 8
12 20 25 27 25 17 20 24 19 9 8 9 9 8 7 7 7 6 7 7 8 8 7 7 7 5 5 4 3 3 2 2 2 2 2 2 2 2
13 17 23 21 17 17 17 13 8 8 9 9 8 8 7 6 6 6 6 5 6 5 5 6 6 6 5 5 4 4 3 3 1 1 1 1 1 1
15 10 6 7 7 8 8 8 7 7 8 7 8 7 7 6 6 5 5 5 5 5 4 3 4 4 5 4 4 5 4 3 3 2 1 1 2 1
17 8 9 9 10 9 9 9 7 7 7 7 7 7 7 7 6 5 5 5 6 5 4 3 2 2 2 4 7 5 4 4 3 3 2 2 2 2
10 8 10 10 10 10 9 9 9 8 7 7 7 7 7 7 6 6 6 5 5 5 4 3 3 3 3 4 4 6 5 3 3 3 3 3 3 2
7 9 10 10 10 10 9 9 8 7 7 7 7 7 6 6 6 6 6 6 5 5 4 3 4 5 5 4 3 3 6 5 4 4 3 2 2 3
9 10 10 10 10 10 10 9 8 8 8 7 7 7 6 6 6 6 6 9 7 4 5 5 6 7 3 2 2 3 3 6 7 4 3 3 2 2
10 10 10 10 10 10 9 9 8 8 8 7 7 6 6 6 6 7 6 6 5 5 5 4 3 3 3 4 5 4 3 2 5 9 9 7 4 4
11 11 10 10 10 9 9 9 10 8 7 7 7 6 6 6 6 6 6 6 5 5 4 4 3 3 4 5 5 5 5 4 3 3 5 10 13 13
Wind_Direction
270 270 266 263 260 258 257 261 283 301 300 272 271 263 275 279 283 286 278 283 287 286 286 286 285 284 284 283 282 279 276 274 275 276 276 276 276 275
270 269 268 266 260 256 253 254 252 278 291 287 276 271 275 286 289 289 286 288 289 289 288 285 284 283 282 281 280 279 277 274 273 273 274 274 274 274
279 276 272 270 266 262 257 257 259 265 285 293 284 274 267 270 278 278 279 280 281 284 285 284 283 282 281 280 279 278 278 276 274 274 275 275 274 273
280 279 277 278 269 266 263 262 266 265 276 289 293 285 272 270 272 272 280 280 276 281 284 285 284 283 282 281 280 279 278 278 277 275 275 276 276 275
275 274 275 274 275 272 267 268 270 275 272 280 288 287 280 274 275 276 274 274 276 280 283 285 285 284 284 283 282 281 280 279 277 275 276 276 276 276
269 268 268 266 269 273 275 270 271 273 274 278 285 288 284 271 268 276 281 269 270 274 277 279 280 283 284 285 286 286 285 283 279 277 277 278 279 278
269 265 265 273 279 284 286 280 277 278 282 284 286 288 286 281 275 272 280 279 271 263 265 267 270 269 274 279 283 284 284 283 280 279 277 278 279 278
276 272 272 279 286 292 294 295 292 288 286 284 286 284 285 281 278 277 281 283 283 245 246 262 253 261 262 256 272 278 278 277 275 275 275 276 278 279
276 277 284 285 294 284 288 290 288 287 286 284 282 282 282 280 279 279 276 274 274 263 256 271 260 262 261 266 274 276 277 276 274 274 275 275 276 277
272 273 277 278 278 286 280 277 273 275 277 278 271 271 272 273 267 268 273 275 272 265 250 267 265 261 264 259 271 273 275 276 275 275 275 275 274 275
273 272 278 278 286 295 295 288 285 281 284 284 283 283 283 285 285 282 278 280 281 273 228 248 263 264 262 261 265 271 273 274 276 278 277 278 279 277
277 272 284 290 294 297 294 289 290 289 284 285 285 285 284 283 285 278 275 278 280 278 227 227 251 253 267 256 261 270 276 279 282 284 282 284 289 286
287 281 277 294 297 298 298 293 291 295 289 287 286 282 278 271 268 262 256 262 271 271 242 231 247 229 237 266 276 261 248 260 277 283 288 291 296 289
293 286 286 296 299 302 304 299 300 304 299 292 287 284 280 277 273 268 261 256 256 264 263 250 252 240 235 239 256 272 270 259 247 251 261 290 297 297
292 296 300 303 306 305 300 301 303 300 292 288 286 283 277 276 278 276 270 266 264 260 258 249 251 252 243 243 238 238 269 278 238 232 249 257 268 292
295 295 300 302 302 299 299 298 289 280 286 286 287 286 285 282 281 280 281 280 276 274 253 241 241 245 249 238 238 241 221 245 266 225 227 261 271 249
304 299 295 295 293 290 286 283 278 280 289 284 285 287 289 287 284 281 275 275 270 270 270 259 240 235 242 242 242 235 223 225 227 215 204 252 270 255
312 305 301 297 295 293 292 291 285 282 282 283 285 285 288 288 287 283 271 268 271 266 257 244 229 222 231 251 234 235 223 223 216 203 196 216 256 254
309 297 294 293 291 289 287 286 285 282 280 281 280 279 281 282 281 282 277 271 269 262 251 232 211 205 222 248 269 227 212 211 195 200 206 210 231 239
288 289 289 290 288 287 287 285 282 282 281 278 276 275 274 277 278 276 275 267 265 260 253 233 218 215 221 227 232 244 219 205 200 209 213 211 239 256
293 290 287 287 286 285 284 283 280 281 279 277 275 272 270 270 272 270 271 277 274 256 249 243 236 237 220 183 226 241 244 222 211 201 189 191 219 226
291 290 289 285 285 284 282 280 279 277 276 273 271 269 268 266 266 268 266 264 258 248 248 251 239 217 193 210 233 240 241 247 239 235 226 211 190 200
290 290 288 287 285 282 279 276 274 274 272 270 268 265 263 265 263 262 264 258 252 251 251 251 234 214 215 218 229 237 237 232 223 230 242 240 240 243
Height
1493 1489 1486 1482 1479 1476 1472 1468 1461 1447 1438 1440 1440 1438 1437 1434 1431 1428 1425 1423 1421 1419 1417 1415 1414 1413 1412 1411 1411 1411 1410 1410 1410 1409 1409 1409 1409 1410
1485 1481 1478 1474 1471 1468 1464 1461 1456 1448 1434 1428 1429 1428 1427 1424 1422 1419 1416 1414 1411 1409 1406 1405 1403 1402 1401 1401 1400 1400 1400 1400 1400 1400 1399 1399 1400 1400
1478 1474 1470 1467 1463 1459 1455 1451 1447 1442 1431 1420 1420 1419 1417 1414 1412 1410 1407 1403 1401 1398 1396 1395 1393 1392 1391 1390 1390 1390 1390 1390 1390 1390 1390 1390 1390 1390
1470 1466 1462 1458 1454 1451 1446 1442 1438 1434 1427 1416 1410 1410 1408 1406 1403 1400 1398 1395 1392 1390 1388 1386 1384 1383 1381 1381 1380 1380 1379 1379 1379 1379 1380 1380 1380 1380
1462 1458 1454 1450 1445 1441 1437 1433 1429 1425 1420 1413 1404 1402 1400 1398 1395 1392 1390 1387 1384 1382 1379 1377 1375 1373 1372 1371 1371 1370 1370 1370 1370 1370 1370 1370 1370 1371
1455 1451 1446 1442 1437 1433 1428 1424 1420 1416 1412 1406 1400 1395 1392 1390 1388 1384 1381 1378 1376 1374 1371 1369 1367 1365 1364 1362 1361 1361 1360 1360 1360 1360 1361 1361 1361 1361
1446 1442 1438 1434 1429 1426 1422 1417 1413 1409 1404 1399 1393 1389 1385 1383 1381 1378 1374 1370 1367 1365 1362 1360 1359 1357 1355 1354 1353 1351 1351 1351 1351 1352 1352 1352 1352 1352
1437 1433 1429 1425 1421 1417 1413 1410 1406 1402 1396 1392 1386 1382 1378 1376 1373 1370 1367 1363 1359 1358 1355 1352 1351 1348 1347 1346 1345 1344 1343 1343 1343 1343 1344 1344 1344 1344
1429 1424 1420 1416 1412 1407 1402 1398 1395 1393 1389 1385 1379 1374 1371 1368 1365 1362 1359 1355 1352 1350 1349 1344 1343 1340 1339 1338 1337 1336 1336 1335 1336 1336 1336 1336 1337 1337
1421 1416 1411 1406 1402 1398 1393 1388 1384 1381 1379 1375 1370 1365 1362 1359 1357 1353 1350 1346 1343 1342 1341 1337 1334 1333 1332 1331 1330 1329 1328 1328 1329 1329 1329 1329 1330 1330
1411 1407 1403 1398 1394 1390 1386 1380 1375 1371 1369 1365 1362 1358 1354 1352 1349 1345 1342 1339 1335 1333 1333 1331 1328 1326 1325 1323 1323 1323 1322 1322 1322 1323 1323 1323 1323 1323
1402 1398 1395 1390 1386 1382 1377 1372 1366 1361 1358 1354 1351 1347 1345 1342 1340 1338 1335 1332 1328 1326 1324 1324 1322 1321 1318 1317 1318 1318 1317 1317 1317 1317 1317 1317 1318 1318
1393 1389 1385 1381 1377 1373 1369 1364 1358 1354 1350 1345 1341 1338 1335 1333 1331 1329 1327 1325 1322 1320 1319 1318 1316 1315 1315 1313 1313 1313 1313 1313 1312 1312 1312 1312 1313 1313
1385 1380 1376 1372 1368 1364 1360 1355 1351 1347 1342 1337 1334 1330 1328 1326 1323 1321 1319 1317 1315 1314 1313 1312 1311 1310 1309 1308 1308 1308 1309 1309 1309 1309 1309 1309 1309 1309
1378 1373 1368 1364 1359 1354 1350 1346 1343 1338 1334 1330 1327 1324 1322 1320 1317 1315 1312 1310 1308 1307 1306 1305 1305 1305 1305 1304 1304 1304 1305 1305 1305 1306 1306 1306 1306 1306
1369 1364 1359 1355 1351 1346 1342 1338 1335 1331 1328 1325 1321 1318 1316 1314 1311 1309 1307 1305 1303 1301 1301 1300 1300 1300 1300 1300 1300 1300 1301 1302 1302 1303 1304 1304 1304 1304
1361 1356 1351 1346 1342 1338 1334 1331 1328 1325 1322 1319 1316 1313 1310 1308 1306 1304 1302 1300 1299 1297 1296 1296 1296 1296 1296 1296 1296 1296 1297 1298 1299 1300 1301 1301 1302 1303
1354 1348 1343 1339 1335 1331 1327 1324 1321 1319 1316 1313 1310 1308 1305 1302 1300 1299 1297 1296 1294 1293 1292 1292 1292 1292 1292 1292 1292 1292 1293 1294 1296 1297 1298 1299 1300 1301
1346 1341 1336 1332 1328 1325 1321 1318 1315 1312 1310 1307 1305 1302 1300 1297 1295 1294 1292 1291 1290 1289 1288 1288 1288 1288 1288 1288 1289 1289 1290 1291 1292 1293 1295 1296 1297 1299
1339 1334 1330 1326 1322 1319 1315 1312 1309 1306 1304 1301 1299 1297 1294 1292 1290 1289 1288 1286 1285 1284 1283 1283 1284 1284 1284 1285 1285 1285 1287 1287 1288 1289 1291 1292 1294 1295
1331 1327 1323 1319 1316 1312 1309 1306 1303 1300 1297 1295 1293 1291 1289 1287 1285 1284 1283 1281 1280 1279 1279 1278 1279 1280 1280 1280 1280 1280 1282 1283 1284 1286 1287 1288 1290 1291
1324 1320 1316 1312 1309 1305 1302 1299 1296 1294 1291 1289 1287 1285 1284 1282 1280 1279 1277 1276 1275 1274 1274 1274 1274 1274 1275 1275 1275 1276 1277 1279 1280 1281 1282 1284 1285 1286
1317 1313 1309 1305 1302 1298 1295 1292 1290 1287 1285 1283 1281 1279 1278 1276 1275 1273 1272 1271 1270 1269 1269 1269 1269 1269 1269 1270 1270 1270 1271 1273 1274 1275 1277 1278 1280 1281